,,,PA_Meas_PMT16A,,PR_Meas_QMR101_102,,RH_Meas_QMH101,,SR_Meas_QMS101,,TA_Meas_QMH101,,GenWind,,GenWind,
date,time,status,PA,status,PR,status,RH,status,SR,status,TA,status,DirAvg,status,SpdAvg,
2010-07-01, 00:00:04,VALID,1008.32,VALID,0,VALID,102.589,VALID,0,VALID,24.7659,VALID,297,VALID,0,
2010-07-01, 00:01:04,VALID,1008.34,VALID,0,VALID,102.574,VALID,0,VALID,24.725,VALID,297,VALID,0,
2010-07-01, 00:02:04,VALID,1008.34,VALID,0,VALID,102.582,VALID,0,VALID,24.7055,VALID,297,VALID,0,
2010-07-01, 00:03:04,VALID,1008.34,VALID,0,VALID,102.582,VALID,0,VALID,24.7269,VALID,297,VALID,0,
2010-07-01, 00:04:04,VALID,1008.36,VALID,0,VALID,102.566,VALID,0,VALID,24.686,VALID,297,VALID,0,
2010-07-01, 00:05:04,VALID,1008.36,VALID,0,VALID,102.574,VALID,0,VALID,24.6684,VALID,297,VALID,0,
2010-07-01, 00:06:04,VALID,1008.36,VALID,0,VALID,102.582,VALID,0,VALID,24.6684,VALID,297,VALID,0,
2010-07-01, 00:07:04,VALID,1008.34,VALID,0,VALID,102.605,VALID,0,VALID,24.6684,VALID,297,VALID,0,
2010-07-01, 00:08:04,VALID,1008.34,VALID,0,VALID,102.582,VALID,0,VALID,24.6276,VALID,297,VALID,0,
2010-07-01, 00:09:04,VALID,1008.34,VALID,0,VALID,102.597,VALID,0,VALID,24.6294,VALID,297,VALID,0,
2010-07-01, 00:10:04,VALID,1008.35,VALID,0,VALID,102.574,VALID,0.105969,VALID,24.6099,VALID,297,VALID,0,
2010-07-01, 00:11:04,VALID,1008.35,VALID,0,VALID,102.597,VALID,0,VALID,24.5886,VALID,297,VALID,0,
2010-07-01, 00:12:04,VALID,1008.36,VALID,0,VALID,102.582,VALID,0,VALID,24.571,VALID,297,VALID,0,
2010-07-01, 00:13:04,VALID,1008.36,VALID,0,VALID,102.589,VALID,0,VALID,24.571,VALID,297,VALID,0,
2010-07-01, 00:14:04,VALID,1008.36,VALID,0,VALID,102.597,VALID,0,VALID,24.5515,VALID,297,VALID,0,
2010-07-01, 00:15:04,VALID,1008.34,VALID,0,VALID,102.612,VALID,0,VALID,24.5515,VALID,297,VALID,0,
2010-07-01, 00:16:04,VALID,1008.31,VALID,0,VALID,102.612,VALID,0,VALID,24.5301,VALID,297,VALID,0,
2010-07-01, 00:17:04,VALID,1008.32,VALID,0,VALID,102.612,VALID,0,VALID,24.5301,VALID,297,VALID,0,
2010-07-01, 00:18:04,VALID,1008.33,VALID,0,VALID,102.605,VALID,0,VALID,24.5106,VALID,297,VALID,0,
2010-07-01, 00:19:04,VALID,1008.31,VALID,0,VALID,102.62,VALID,0,VALID,24.5125,VALID,297,VALID,0,
2010-07-01, 00:20:04,VALID,1008.32,VALID,0,VALID,102.612,VALID,0,VALID,24.5125,VALID,297,VALID,0,
2010-07-01, 00:21:04,VALID,1008.34,VALID,0,VALID,102.597,VALID,0,VALID,24.5125,VALID,297,VALID,0,
2010-07-01, 00:22:04,VALID,1008.35,VALID,0,VALID,102.612,VALID,0,VALID,24.5125,VALID,297,VALID,0,
2010-07-01, 00:23:04,VALID,1008.35,VALID,0,VALID,102.612,VALID,0,VALID,24.5125,VALID,297,VALID,0,
2010-07-01, 00:24:04,VALID,1008.35,VALID,0,VALID,102.612,VALID,0,VALID,24.493,VALID,297,VALID,0,
2010-07-01, 00:25:04,VALID,1008.34,VALID,0,VALID,102.605,VALID,0.105969,VALID,24.4717,VALID,297,VALID,0,
2010-07-01, 00:26:04,VALID,1008.36,VALID,0,VALID,102.635,VALID,0,VALID,24.4522,VALID,297,VALID,0,
2010-07-01, 00:27:04,VALID,1008.36,VALID,0,VALID,102.627,VALID,0,VALID,24.4522,VALID,297,VALID,0,
2010-07-01, 00:28:04,VALID,1008.37,VALID,0,VALID,102.612,VALID,0,VALID,24.454,VALID,297,VALID,0,
2010-07-01, 00:29:04,VALID,1008.37,VALID,0,VALID,102.597,VALID,0,VALID,24.4735,VALID,297,VALID,0,
2010-07-01, 00:30:04,VALID,1008.36,VALID,0,VALID,102.62,VALID,0,VALID,24.4735,VALID,297,VALID,0,
2010-07-01, 00:31:04,VALID,1008.37,VALID,0,VALID,102.627,VALID,0,VALID,24.454,VALID,297,VALID,0,
2010-07-01, 00:32:04,VALID,1008.36,VALID,0,VALID,102.62,VALID,0.105969,VALID,24.454,VALID,297,VALID,0,
2010-07-01, 00:33:04,VALID,1008.37,VALID,0,VALID,102.643,VALID,0,VALID,24.4132,VALID,297,VALID,0,
2010-07-01, 00:34:04,VALID,1008.38,VALID,0,VALID,102.658,VALID,0,VALID,24.415,VALID,297,VALID,0,
2010-07-01, 00:35:04,VALID,1008.39,VALID,0,VALID,102.627,VALID,0,VALID,24.3956,VALID,297,VALID,0,
2010-07-01, 00:36:04,VALID,1008.39,VALID,0,VALID,102.635,VALID,0,VALID,24.3956,VALID,297,VALID,0,
2010-07-01, 00:37:04,VALID,1008.37,VALID,0,VALID,102.635,VALID,0,VALID,24.3761,VALID,297,VALID,0,
2010-07-01, 00:38:04,VALID,1008.39,VALID,0,VALID,102.643,VALID,0.105969,VALID,24.3761,VALID,297,VALID,0,
2010-07-01, 00:39:04,VALID,1008.36,VALID,0,VALID,102.627,VALID,0,VALID,24.3566,VALID,297,VALID,0,
2010-07-01, 00:40:04,VALID,1008.4,VALID,0,VALID,102.627,VALID,0,VALID,24.3547,VALID,297,VALID,0,
2010-07-01, 00:41:04,VALID,1008.41,VALID,0,VALID,102.627,VALID,0,VALID,24.3547,VALID,297,VALID,0,
2010-07-01, 00:42:04,VALID,1008.39,VALID,0,VALID,102.635,VALID,0,VALID,24.3352,VALID,297,VALID,0,
2010-07-01, 00:43:04,VALID,1008.42,VALID,0,VALID,102.65,VALID,0,VALID,24.3352,VALID,297,VALID,0,
2010-07-01, 00:44:04,VALID,1008.4,VALID,0,VALID,102.643,VALID,0,VALID,24.3371,VALID,297,VALID,0,
2010-07-01, 00:45:04,VALID,1008.41,VALID,0,VALID,102.65,VALID,0,VALID,24.3158,VALID,297,VALID,0,
2010-07-01, 00:46:04,VALID,1008.4,VALID,0,VALID,102.62,VALID,0,VALID,24.2963,VALID,297,VALID,0,
2010-07-01, 00:47:04,VALID,1008.4,VALID,0,VALID,102.643,VALID,0,VALID,24.3371,VALID,297,VALID,0,
2010-07-01, 00:48:04,VALID,1008.39,VALID,0,VALID,102.627,VALID,0,VALID,24.3371,VALID,297,VALID,0,
2010-07-01, 00:49:04,VALID,1008.4,VALID,0,VALID,102.627,VALID,0,VALID,24.3158,VALID,297,VALID,0,
2010-07-01, 00:50:04,VALID,1008.38,VALID,0,VALID,102.605,VALID,0,VALID,24.3158,VALID,297,VALID,0,
2010-07-01, 00:51:04,VALID,1008.38,VALID,0,VALID,102.62,VALID,0,VALID,24.3158,VALID,297,VALID,0,
2010-07-01, 00:52:04,VALID,1008.39,VALID,0,VALID,102.605,VALID,0,VALID,24.3158,VALID,297,VALID,0,
2010-07-01, 00:53:04,VALID,1008.39,VALID,0,VALID,102.635,VALID,0.105969,VALID,24.3176,VALID,297,VALID,0,
2010-07-01, 00:54:04,VALID,1008.38,VALID,0,VALID,102.643,VALID,0,VALID,24.3176,VALID,297,VALID,0,
2010-07-01, 00:55:04,VALID,1008.37,VALID,0,VALID,102.627,VALID,0.105969,VALID,24.2768,VALID,297,VALID,0,
2010-07-01, 00:56:04,VALID,1008.37,VALID,0,VALID,102.627,VALID,0.105969,VALID,24.2573,VALID,297,VALID,0,
2010-07-01, 00:57:04,VALID,1008.38,VALID,0,VALID,102.635,VALID,0,VALID,24.2573,VALID,297,VALID,0,
2010-07-01, 00:58:04,VALID,1008.38,VALID,0,VALID,102.635,VALID,0,VALID,24.2573,VALID,297,VALID,0,
2010-07-01, 00:59:04,VALID,1008.41,VALID,0,VALID,102.62,VALID,0,VALID,24.2573,VALID,297,VALID,0,
2010-07-01, 01:00:04,VALID,1008.35,VALID,0,VALID,102.597,VALID,0,VALID,24.2981,VALID,297,VALID,0,
2010-07-01, 01:01:04,VALID,1008.35,VALID,0,VALID,102.574,VALID,0.105969,VALID,24.3371,VALID,297,VALID,0,
2010-07-01, 01:02:04,VALID,1008.32,VALID,0,VALID,102.559,VALID,0,VALID,24.3352,VALID,297,VALID,0,
2010-07-01, 01:03:04,VALID,1008.31,VALID,0,VALID,102.566,VALID,0,VALID,24.3547,VALID,297,VALID,0,
2010-07-01, 01:04:04,VALID,1008.31,VALID,0,VALID,102.544,VALID,0.105969,VALID,24.3547,VALID,297,VALID,0,
2010-07-01, 01:05:04,VALID,1008.28,VALID,0,VALID,102.566,VALID,0,VALID,24.3761,VALID,297,VALID,0,
2010-07-01, 01:06:04,VALID,1008.29,VALID,0,VALID,102.574,VALID,0,VALID,24.3547,VALID,297,VALID,0,
2010-07-01, 01:07:04,VALID,1008.29,VALID,0,VALID,102.597,VALID,0,VALID,24.3547,VALID,297,VALID,0,
2010-07-01, 01:08:04,VALID,1008.26,VALID,0,VALID,102.597,VALID,0,VALID,24.3547,VALID,297,VALID,0,
2010-07-01, 01:09:04,VALID,1008.23,VALID,0,VALID,102.574,VALID,0,VALID,24.3547,VALID,297,VALID,0,
2010-07-01, 01:10:04,VALID,1008.22,VALID,0,VALID,102.589,VALID,0,VALID,24.3547,VALID,297,VALID,0,
2010-07-01, 01:11:04,VALID,1008.21,VALID,0,VALID,102.62,VALID,0,VALID,24.3352,VALID,297,VALID,0,
2010-07-01, 01:12:04,VALID,1008.19,VALID,0,VALID,102.635,VALID,0,VALID,24.3371,VALID,297,VALID,0,
2010-07-01, 01:13:04,VALID,1008.17,VALID,0,VALID,102.627,VALID,0,VALID,24.3371,VALID,297,VALID,0,
2010-07-01, 01:14:04,VALID,1008.18,VALID,0,VALID,102.635,VALID,0,VALID,24.3176,VALID,297,VALID,0,
2010-07-01, 01:15:04,VALID,1008.15,VALID,0,VALID,102.612,VALID,0,VALID,24.3176,VALID,297,VALID,0,
2010-07-01, 01:16:04,VALID,1008.16,VALID,0,VALID,102.62,VALID,0,VALID,24.2768,VALID,297,VALID,0,
2010-07-01, 01:17:04,VALID,1008.13,VALID,0,VALID,102.62,VALID,0.105969,VALID,24.2981,VALID,297,VALID,0,
2010-07-01, 01:18:04,VALID,1008.14,VALID,0,VALID,102.635,VALID,0,VALID,24.2573,VALID,297,VALID,0,
2010-07-01, 01:19:04,VALID,1008.12,VALID,0,VALID,102.605,VALID,0.105969,VALID,24.2573,VALID,297,VALID,0,
2010-07-01, 01:20:04,VALID,1008.13,VALID,0,VALID,102.605,VALID,0,VALID,24.2768,VALID,297,VALID,0,
2010-07-01, 01:21:04,VALID,1008.12,VALID,0,VALID,102.597,VALID,0,VALID,24.2573,VALID,297,VALID,0,
2010-07-01, 01:22:04,VALID,1008.12,VALID,0,VALID,102.62,VALID,0.105969,VALID,24.2573,VALID,297,VALID,0,
2010-07-01, 01:23:04,VALID,1008.11,VALID,0,VALID,102.635,VALID,0.105969,VALID,24.2378,VALID,297,VALID,0,
2010-07-01, 01:24:04,VALID,1008.12,VALID,0,VALID,102.635,VALID,0,VALID,24.2396,VALID,297,VALID,0,
2010-07-01, 01:25:04,VALID,1008.13,VALID,0,VALID,102.612,VALID,0,VALID,24.2396,VALID,297,VALID,0,
2010-07-01, 01:26:04,VALID,1008.11,VALID,0,VALID,102.605,VALID,0,VALID,24.2183,VALID,297,VALID,0,
2010-07-01, 01:27:04,VALID,1008.13,VALID,0,VALID,102.612,VALID,0,VALID,24.2591,VALID,297,VALID,0,
2010-07-01, 01:28:04,VALID,1008.18,VALID,0,VALID,102.627,VALID,0,VALID,24.2591,VALID,297,VALID,0,
2010-07-01, 01:29:04,VALID,1008.14,VALID,0,VALID,102.62,VALID,0.105969,VALID,24.2378,VALID,297,VALID,0,
2010-07-01, 01:30:04,VALID,1008.16,VALID,0,VALID,102.627,VALID,0,VALID,24.2183,VALID,297,VALID,0,
2010-07-01, 01:31:04,VALID,1008.17,VALID,0,VALID,102.612,VALID,0.105969,VALID,24.2396,VALID,297,VALID,0,
2010-07-01, 01:32:04,VALID,1008.15,VALID,0,VALID,102.635,VALID,0,VALID,24.2591,VALID,297,VALID,0,
2010-07-01, 01:33:04,VALID,1008.15,VALID,0,VALID,102.627,VALID,0.105969,VALID,24.2591,VALID,297,VALID,0,
2010-07-01, 01:34:04,VALID,1008.13,VALID,0,VALID,102.62,VALID,0,VALID,24.2183,VALID,297,VALID,0,
2010-07-01, 01:35:04,VALID,1008.15,VALID,0,VALID,102.62,VALID,0,VALID,24.2183,VALID,297,VALID,0,
2010-07-01, 01:36:04,VALID,1008.12,VALID,0,VALID,102.605,VALID,0,VALID,24.2396,VALID,297,VALID,0,
2010-07-01, 01:37:04,VALID,1008.14,VALID,0,VALID,102.605,VALID,0,VALID,24.2183,VALID,297,VALID,0,
2010-07-01, 01:38:04,VALID,1008.14,VALID,0,VALID,102.582,VALID,0,VALID,24.2591,VALID,297,VALID,0,
2010-07-01, 01:39:04,VALID,1008.1,VALID,0,VALID,102.597,VALID,0.105969,VALID,24.2591,VALID,297,VALID,0,
2010-07-01, 01:40:04,VALID,1008.1,VALID,0,VALID,102.589,VALID,0,VALID,24.2591,VALID,297,VALID,0,
2010-07-01, 01:41:04,VALID,1008.1,VALID,0,VALID,102.582,VALID,0,VALID,24.2378,VALID,297,VALID,0,
2010-07-01, 01:42:04,VALID,1008.11,VALID,0,VALID,102.605,VALID,0,VALID,24.2378,VALID,297,VALID,0,
2010-07-01, 01:43:04,VALID,1008.09,VALID,0,VALID,102.566,VALID,0,VALID,24.2378,VALID,297,VALID,0,
2010-07-01, 01:44:04,VALID,1008.09,VALID,0,VALID,102.597,VALID,0,VALID,24.2591,VALID,297,VALID,0,
2010-07-01, 01:45:04,VALID,1008.12,VALID,0,VALID,102.612,VALID,0,VALID,24.2378,VALID,297,VALID,0,
2010-07-01, 01:46:04,VALID,1008.11,VALID,0,VALID,102.605,VALID,0,VALID,24.2396,VALID,297,VALID,0,
2010-07-01, 01:47:04,VALID,1008.11,VALID,0,VALID,102.62,VALID,0,VALID,24.2183,VALID,297,VALID,0,
2010-07-01, 01:48:04,VALID,1008.11,VALID,0,VALID,102.612,VALID,0,VALID,24.2183,VALID,297,VALID,0,
2010-07-01, 01:49:04,VALID,1008.08,VALID,0,VALID,102.612,VALID,0,VALID,24.2591,VALID,297,VALID,0,
2010-07-01, 01:50:04,VALID,1008.07,VALID,0,VALID,102.597,VALID,0,VALID,24.2591,VALID,297,VALID,0,
2010-07-01, 01:51:04,VALID,1008.06,VALID,0,VALID,102.589,VALID,0,VALID,24.2786,VALID,297,VALID,0,
2010-07-01, 01:52:04,VALID,1008.05,VALID,0,VALID,102.574,VALID,0,VALID,24.2768,VALID,297,VALID,0,
2010-07-01, 01:53:04,VALID,1008.04,VALID,0,VALID,102.551,VALID,0,VALID,24.2768,VALID,297,VALID,0,
2010-07-01, 01:54:04,VALID,1008.05,VALID,0,VALID,102.566,VALID,0,VALID,24.2768,VALID,297,VALID,0,
2010-07-01, 01:55:04,VALID,1008.04,VALID,0,VALID,102.559,VALID,0,VALID,24.2981,VALID,297,VALID,0,
2010-07-01, 01:56:04,VALID,1008.02,VALID,0,VALID,102.574,VALID,0,VALID,24.2768,VALID,297,VALID,0,
2010-07-01, 01:57:04,VALID,1008.04,VALID,0,VALID,102.597,VALID,0,VALID,24.2768,VALID,297,VALID,0,
2010-07-01, 01:58:04,VALID,1008.01,VALID,0,VALID,102.597,VALID,0,VALID,24.2786,VALID,297,VALID,0,
2010-07-01, 01:59:04,VALID,1008.01,VALID,0,VALID,102.605,VALID,0,VALID,24.2573,VALID,297,VALID,0,
2010-07-01, 02:00:04,VALID,1007.99,VALID,0,VALID,102.612,VALID,0.105969,VALID,24.2573,VALID,297,VALID,0,
2010-07-01, 02:01:04,VALID,1008.01,VALID,0,VALID,102.605,VALID,0,VALID,24.2378,VALID,297,VALID,0,
2010-07-01, 02:02:04,VALID,1007.99,VALID,0,VALID,102.62,VALID,0,VALID,24.2591,VALID,297,VALID,0,
2010-07-01, 02:03:04,VALID,1007.97,VALID,0,VALID,102.62,VALID,0,VALID,24.2591,VALID,297,VALID,0,
2010-07-01, 02:04:04,VALID,1007.96,VALID,0,VALID,102.627,VALID,0,VALID,24.2396,VALID,297,VALID,0,
2010-07-01, 02:05:04,VALID,1007.96,VALID,0,VALID,102.627,VALID,0.105969,VALID,24.2183,VALID,297,VALID,0,
2010-07-01, 02:06:04,VALID,1007.94,VALID,0,VALID,102.627,VALID,0,VALID,24.2183,VALID,297,VALID,0,
2010-07-01, 02:07:04,VALID,1007.93,VALID,0,VALID,102.627,VALID,0.105969,VALID,24.1793,VALID,297,VALID,0,
2010-07-01, 02:08:04,VALID,1007.93,VALID,0,VALID,102.627,VALID,0.105969,VALID,24.1793,VALID,297,VALID,0,
2010-07-01, 02:09:04,VALID,1007.97,VALID,0,VALID,102.635,VALID,0.105969,VALID,24.1793,VALID,297,VALID,0,
2010-07-01, 02:10:04,VALID,1007.97,VALID,0,VALID,102.635,VALID,0.105969,VALID,24.1599,VALID,297,VALID,0,
2010-07-01, 02:11:04,VALID,1007.98,VALID,0,VALID,102.62,VALID,0,VALID,24.1599,VALID,297,VALID,0,
2010-07-01, 02:12:04,VALID,1008.02,VALID,0,VALID,102.627,VALID,0,VALID,24.1404,VALID,297,VALID,0,
2010-07-01, 02:13:04,VALID,1008.03,VALID,0,VALID,102.635,VALID,0.105969,VALID,24.1209,VALID,297,VALID,0,
2010-07-01, 02:14:04,VALID,1008.06,VALID,0,VALID,102.635,VALID,0,VALID,24.1209,VALID,297,VALID,0,
2010-07-01, 02:15:04,VALID,1008.05,VALID,0,VALID,102.666,VALID,0.105969,VALID,24.1014,VALID,297,VALID,0,
2010-07-01, 02:16:04,VALID,1008.06,VALID,0,VALID,102.643,VALID,0.105969,VALID,24.1014,VALID,297,VALID,0,
2010-07-01, 02:17:04,VALID,1008.04,VALID,0,VALID,102.65,VALID,0.105969,VALID,24.0819,VALID,297,VALID,0,
2010-07-01, 02:18:04,VALID,1008.05,VALID,0,VALID,102.643,VALID,0,VALID,24.0856,VALID,297,VALID,0,
2010-07-01, 02:19:04,VALID,1008.08,VALID,0,VALID,102.643,VALID,0,VALID,24.0856,VALID,297,VALID,0,
2010-07-01, 02:20:04,VALID,1008.06,VALID,0,VALID,102.635,VALID,0,VALID,24.0856,VALID,297,VALID,0,
2010-07-01, 02:21:04,VALID,1008.05,VALID,0,VALID,102.627,VALID,0,VALID,24.0856,VALID,297,VALID,0,
2010-07-01, 02:22:04,VALID,1008.07,VALID,0,VALID,102.605,VALID,0,VALID,24.0837,VALID,297,VALID,0,
2010-07-01, 02:23:04,VALID,1008.08,VALID,0,VALID,102.612,VALID,0,VALID,24.1032,VALID,297,VALID,0,
2010-07-01, 02:24:04,VALID,1008.08,VALID,0,VALID,102.605,VALID,0,VALID,24.1245,VALID,297,VALID,0,
2010-07-01, 02:25:04,VALID,1008.08,VALID,0,VALID,102.589,VALID,0,VALID,24.1227,VALID,297,VALID,0,
2010-07-01, 02:26:04,VALID,1008.08,VALID,0,VALID,102.574,VALID,0,VALID,24.1422,VALID,297,VALID,0,
2010-07-01, 02:27:04,VALID,1008.05,VALID,0,VALID,102.582,VALID,0,VALID,24.183,VALID,297,VALID,0,
2010-07-01, 02:28:04,VALID,1008.05,VALID,0,VALID,102.566,VALID,0,VALID,24.183,VALID,297,VALID,0.0792969,
2010-07-01, 02:29:04,VALID,1008.03,VALID,0,VALID,102.597,VALID,0,VALID,24.183,VALID,297,VALID,0.264062,
2010-07-01, 02:30:04,VALID,1007.99,VALID,0,VALID,102.589,VALID,0,VALID,24.1812,VALID,297,VALID,0.182422,
2010-07-01, 02:31:04,VALID,1007.98,VALID,0,VALID,102.559,VALID,0,VALID,24.222,VALID,297,VALID,0.135156,
2010-07-01, 02:32:04,VALID,1007.97,VALID,0,VALID,102.582,VALID,0,VALID,24.2202,VALID,297,VALID,0.273438,
2010-07-01, 02:33:04,VALID,1007.95,VALID,0,VALID,102.544,VALID,0.105969,VALID,24.2378,VALID,297,VALID,0.188281,
2010-07-01, 02:34:04,VALID,1007.94,VALID,0,VALID,102.521,VALID,0,VALID,24.2786,VALID,236,VALID,0.0832031,
2010-07-01, 02:35:04,VALID,1007.91,VALID,0,VALID,102.521,VALID,0.105969,VALID,24.2963,VALID,236,VALID,0.121484,
2010-07-01, 02:36:04,VALID,1007.93,VALID,0,VALID,102.536,VALID,0,VALID,24.3176,VALID,236,VALID,0.238672,
2010-07-01, 02:37:04,VALID,1007.92,VALID,0,VALID,102.544,VALID,0,VALID,24.3158,VALID,236,VALID,0,
2010-07-01, 02:38:04,VALID,1007.89,VALID,0,VALID,102.536,VALID,0.105969,VALID,24.3566,VALID,236,VALID,0,
2010-07-01, 02:39:04,VALID,1007.88,VALID,0,VALID,102.544,VALID,0,VALID,24.3761,VALID,236,VALID,0,
2010-07-01, 02:40:04,VALID,1007.89,VALID,0,VALID,102.536,VALID,0,VALID,24.3761,VALID,236,VALID,0,
2010-07-01, 02:41:04,VALID,1007.88,VALID,0,VALID,102.544,VALID,0,VALID,24.3956,VALID,236,VALID,0,
2010-07-01, 02:42:04,VALID,1007.88,VALID,0,VALID,102.528,VALID,0,VALID,24.415,VALID,236,VALID,0,
2010-07-01, 02:43:04,VALID,1007.88,VALID,0,VALID,102.528,VALID,0.105969,VALID,24.4345,VALID,236,VALID,0,
2010-07-01, 02:44:04,VALID,1007.87,VALID,0,VALID,102.559,VALID,0,VALID,24.4345,VALID,236,VALID,0,
2010-07-01, 02:45:04,VALID,1007.91,VALID,0,VALID,102.589,VALID,0.105969,VALID,24.4132,VALID,236,VALID,0,
2010-07-01, 02:46:04,VALID,1007.9,VALID,0,VALID,102.612,VALID,0,VALID,24.415,VALID,236,VALID,0,
2010-07-01, 02:47:04,VALID,1007.9,VALID,0,VALID,102.635,VALID,0,VALID,24.3761,VALID,236,VALID,0,
2010-07-01, 02:48:04,VALID,1007.88,VALID,0,VALID,102.65,VALID,0.105969,VALID,24.3761,VALID,236,VALID,0,
2010-07-01, 02:49:04,VALID,1007.88,VALID,0,VALID,102.658,VALID,0.105969,VALID,24.3352,VALID,236,VALID,0,
2010-07-01, 02:50:04,VALID,1007.85,VALID,0,VALID,102.666,VALID,0.105969,VALID,24.3371,VALID,236,VALID,0,
2010-07-01, 02:51:04,VALID,1007.89,VALID,0,VALID,102.688,VALID,0,VALID,24.2981,VALID,236,VALID,0,
2010-07-01, 02:52:04,VALID,1007.86,VALID,0,VALID,102.666,VALID,0.105969,VALID,24.3176,VALID,126,VALID,0.416797,
2010-07-01, 02:53:04,VALID,1007.88,VALID,0,VALID,102.658,VALID,0,VALID,24.2981,VALID,68,VALID,0.446484,
2010-07-01, 02:54:04,VALID,1007.87,VALID,0,VALID,102.658,VALID,0.105969,VALID,24.2963,VALID,68,VALID,0.398828,
2010-07-01, 02:55:04,VALID,1007.89,VALID,0,VALID,102.658,VALID,0,VALID,24.3176,VALID,68,VALID,0.287109,
2010-07-01, 02:56:04,VALID,1007.88,VALID,0,VALID,102.681,VALID,0,VALID,24.2768,VALID,68,VALID,0,
2010-07-01, 02:57:04,VALID,1007.92,VALID,0,VALID,102.673,VALID,0,VALID,24.2768,VALID,68,VALID,0,
2010-07-01, 02:58:04,VALID,1007.93,VALID,0,VALID,102.658,VALID,0,VALID,24.2981,VALID,68,VALID,0,
2010-07-01, 02:59:04,VALID,1007.91,VALID,0,VALID,102.688,VALID,0,VALID,24.2768,VALID,68,VALID,0,
2010-07-01, 03:00:04,VALID,1007.9,VALID,0,VALID,102.681,VALID,0,VALID,24.2768,VALID,68,VALID,0,
2010-07-01, 03:01:04,VALID,1007.92,VALID,0,VALID,102.658,VALID,0.105969,VALID,24.2981,VALID,68,VALID,0,
2010-07-01, 03:02:04,VALID,1007.88,VALID,0,VALID,102.65,VALID,0,VALID,24.2981,VALID,68,VALID,0,
2010-07-01, 03:03:04,VALID,1007.89,VALID,0,VALID,102.635,VALID,0.105969,VALID,24.3176,VALID,81,VALID,0.38125,
2010-07-01, 03:04:04,VALID,1007.87,VALID,0,VALID,102.65,VALID,0.105969,VALID,24.2963,VALID,90,VALID,0.550391,
2010-07-01, 03:05:04,VALID,1007.86,VALID,0,VALID,102.696,VALID,0.105969,VALID,24.3176,VALID,90,VALID,0.675391,
2010-07-01, 03:06:04,VALID,1007.85,VALID,0,VALID,102.696,VALID,0,VALID,24.3176,VALID,90,VALID,0.862109,
2010-07-01, 03:07:04,VALID,1007.89,VALID,0,VALID,102.696,VALID,0,VALID,24.3176,VALID,90,VALID,0.559766,
2010-07-01, 03:08:04,VALID,1007.87,VALID,0,VALID,102.688,VALID,0.105969,VALID,24.3176,VALID,90,VALID,0.494141,
2010-07-01, 03:09:04,VALID,1007.9,VALID,0,VALID,102.673,VALID,0.105969,VALID,24.2963,VALID,90,VALID,0.729688,
2010-07-01, 03:10:04,VALID,1007.88,VALID,0,VALID,102.673,VALID,0.105969,VALID,24.3371,VALID,90,VALID,0.373437,
2010-07-01, 03:11:04,VALID,1007.93,VALID,0,VALID,102.673,VALID,0.105969,VALID,24.3566,VALID,90,VALID,0.00820312,
2010-07-01, 03:12:04,VALID,1007.94,VALID,0,VALID,102.688,VALID,0,VALID,24.3566,VALID,90,VALID,0,
2010-07-01, 03:13:04,VALID,1007.96,VALID,0,VALID,102.673,VALID,0,VALID,24.3352,VALID,90,VALID,0,
2010-07-01, 03:14:04,VALID,1007.97,VALID,0,VALID,102.681,VALID,0.105969,VALID,24.3761,VALID,90,VALID,0,
2010-07-01, 03:15:04,VALID,1008.02,VALID,0,VALID,102.666,VALID,0.105969,VALID,24.3566,VALID,90,VALID,0,
2010-07-01, 03:16:04,VALID,1008.01,VALID,0,VALID,102.681,VALID,0,VALID,24.3547,VALID,90,VALID,0,
2010-07-01, 03:17:04,VALID,1008.04,VALID,0,VALID,102.658,VALID,0,VALID,24.3547,VALID,90,VALID,0,
2010-07-01, 03:18:04,VALID,1008.04,VALID,0,VALID,102.65,VALID,0.105969,VALID,24.3742,VALID,90,VALID,0,
2010-07-01, 03:19:04,VALID,1008.05,VALID,0,VALID,102.658,VALID,0.105969,VALID,24.3742,VALID,90,VALID,0,
2010-07-01, 03:20:04,VALID,1008.05,VALID,0,VALID,102.65,VALID,0,VALID,24.3742,VALID,90,VALID,0,
2010-07-01, 03:21:04,VALID,1008.07,VALID,0,VALID,102.658,VALID,0,VALID,24.3937,VALID,90,VALID,0,
2010-07-01, 03:22:04,VALID,1008.1,VALID,0,VALID,102.643,VALID,0.105969,VALID,24.3956,VALID,90,VALID,0,
2010-07-01, 03:23:04,VALID,1008.08,VALID,0,VALID,102.65,VALID,0,VALID,24.415,VALID,88,VALID,0.372656,
2010-07-01, 03:24:04,VALID,1008.07,VALID,0,VALID,102.635,VALID,0.105969,VALID,24.3937,VALID,82,VALID,0,
2010-07-01, 03:25:04,VALID,1008.07,VALID,0,VALID,102.643,VALID,0.105969,VALID,24.415,VALID,82,VALID,0,
2010-07-01, 03:26:04,VALID,1008.08,VALID,0,VALID,102.635,VALID,0.105969,VALID,24.4132,VALID,82,VALID,0,
2010-07-01, 03:27:04,VALID,1008.06,VALID,0,VALID,102.643,VALID,0.105969,VALID,24.4132,VALID,82,VALID,0,
2010-07-01, 03:28:04,VALID,1008.07,VALID,0,VALID,102.635,VALID,0.105969,VALID,24.4132,VALID,82,VALID,0,
2010-07-01, 03:29:04,VALID,1008.07,VALID,0,VALID,102.635,VALID,0.105969,VALID,24.4132,VALID,82,VALID,0,
2010-07-01, 03:30:04,VALID,1008.08,VALID,0,VALID,102.627,VALID,0.105969,VALID,24.3937,VALID,82,VALID,0,
2010-07-01, 03:31:04,VALID,1008.03,VALID,0,VALID,102.627,VALID,0.105969,VALID,24.4132,VALID,82,VALID,0,
2010-07-01, 03:32:04,VALID,1008.05,VALID,0,VALID,102.643,VALID,0.105969,VALID,24.4132,VALID,82,VALID,0,
2010-07-01, 03:33:04,VALID,1008.03,VALID,0,VALID,102.627,VALID,0,VALID,24.415,VALID,82,VALID,0,
2010-07-01, 03:34:04,VALID,1008.03,VALID,0,VALID,102.612,VALID,0,VALID,24.415,VALID,82,VALID,0,
2010-07-01, 03:35:04,VALID,1008,VALID,0,VALID,102.62,VALID,0,VALID,24.415,VALID,82,VALID,0,
2010-07-01, 03:36:04,VALID,1008.01,VALID,0,VALID,102.62,VALID,0,VALID,24.3956,VALID,82,VALID,0,
2010-07-01, 03:37:04,VALID,1008.01,VALID,0,VALID,102.597,VALID,0,VALID,24.4364,VALID,82,VALID,0,
2010-07-01, 03:38:04,VALID,1008.03,VALID,0,VALID,102.62,VALID,0,VALID,24.4169,VALID,82,VALID,0,
2010-07-01, 03:39:04,VALID,1008.05,VALID,0,VALID,102.627,VALID,0,VALID,24.3761,VALID,82,VALID,0,
2010-07-01, 03:40:04,VALID,1008.04,VALID,0,VALID,102.627,VALID,0,VALID,24.3779,VALID,82,VALID,0,
2010-07-01, 03:41:04,VALID,1008.04,VALID,0,VALID,102.612,VALID,0,VALID,24.3371,VALID,82,VALID,0,
2010-07-01, 03:42:04,VALID,1008.03,VALID,0,VALID,102.627,VALID,0,VALID,24.3176,VALID,82,VALID,0,
2010-07-01, 03:43:04,VALID,1008.04,VALID,0,VALID,102.605,VALID,0,VALID,24.2981,VALID,82,VALID,0,
2010-07-01, 03:44:04,VALID,1008.06,VALID,0,VALID,102.643,VALID,0,VALID,24.3,VALID,82,VALID,0,
2010-07-01, 03:45:04,VALID,1008.04,VALID,0,VALID,102.65,VALID,0,VALID,24.2805,VALID,82,VALID,0,
2010-07-01, 03:46:04,VALID,1008.03,VALID,0,VALID,102.658,VALID,0,VALID,24.2396,VALID,82,VALID,0,
2010-07-01, 03:47:04,VALID,1008.02,VALID,0,VALID,102.658,VALID,0,VALID,24.2396,VALID,82,VALID,0,
2010-07-01, 03:48:04,VALID,1007.99,VALID,0,VALID,102.666,VALID,0,VALID,24.2202,VALID,82,VALID,0,
2010-07-01, 03:49:04,VALID,1007.98,VALID,0,VALID,102.658,VALID,0,VALID,24.2007,VALID,82,VALID,0,
2010-07-01, 03:50:04,VALID,1007.96,VALID,0,VALID,102.688,VALID,0,VALID,24.1812,VALID,82,VALID,0,
2010-07-01, 03:51:04,VALID,1007.93,VALID,0,VALID,102.673,VALID,0,VALID,24.1617,VALID,82,VALID,0,
2010-07-01, 03:52:04,VALID,1007.92,VALID,0,VALID,102.673,VALID,0,VALID,24.1422,VALID,82,VALID,0,
2010-07-01, 03:53:04,VALID,1007.9,VALID,0,VALID,102.681,VALID,0,VALID,24.1422,VALID,82,VALID,0,
2010-07-01, 03:54:04,VALID,1007.9,VALID,0,VALID,102.666,VALID,0,VALID,24.1422,VALID,82,VALID,0,